User: anonymous   Login
Location: Fort Wayne
(41.1310°N, 85.1290°W)
Time: 23:49:46
(UTC-04:00)
Language:

IDEFIX/ARIANE 42P - Orbit

View from above orbital plane
View from above orbital plane
View from above satellite
View from above satellite

Ground track
Ground track

The orbit data is extracted from the following two-line orbital elements,

1 27422U 02021B   16179.92384163 -.00000009 +00000-0 +12412-4 0  9996
2 27422 098.2296 193.8542 0011781 201.0930 158.9768 14.29245792737961
Epoch (UTC): 27 June 2016 22:10:19
Eccentricity: 0.0011781
inclination: 98.2296°
perigee height: 786 km
apogee height: 803 km
right ascension of ascending node: 193.8542°
argument of perigee: 201.0930°
revolutions per day: 14.29245792
mean anomaly at epoch: 158.9768°
orbit number at epoch: 73796

The dashed part of the orbit path shows where the satellite is in the earth's shadow,  

DLR